Flag for U.S.A. Weather past 2 weeks in Lynchburg, Virginia, U.S.A.

Now
46 °F

Overcast.


Feels Like: 45 °F
Forecast: 30 / 49 °F
Wind: 3 mph from Southeast

Location: Lynchburg Regional Airport

Current Time: Feb 1, 2015 at 6:40:18 PM

Latest Report: Feb 1, 2015 at 5:54 PM


Visibility: 10 mi

Pressure: 29.99 "Hg

Humidity: 40%

Dew point: 23 °F

Location of LynchburgLocation

Historic Weather in Lynchburg — Graph

°F

Lynchburg temperature yesterday

Maximum temperature yesterday: 44 °F (at 3:54 PM)
Minimum temperature yesterday: 15 °F (at 2:54 AM)
Average temperature yesterday: 29 °F

Past Weeks' High & Low Weather Summary

 TemperatureHumidityPressure
High59 °F (Jan 20, 2:54 PM)100% (Jan 21, 10:54 PM)30.38 "Hg (Jan 21, 10:54 PM)
Low15 °F (Jan 31, 2:54 AM)16% (Jan 31, 4:54 PM)29.56 "Hg (Jan 24, 11:54 AM)
Average36 °F62%30.03 "Hg
* Reported Jan 17 4:54 PM — Feb 1 4:54 PM, Lynchburg, Weather by CustomWeather, © 2014

Note: Actual official high and low records may vary slightly from our data, if they occured in-between our weather recording intervals... More about our weather records

Advertising

Lynchburg weather history for previous 24 hours

 ConditionsComfort  
Time TempWeatherWind HumidityBarometerVisibility
4:54 PM
Feb 1
47 °FOvercast.3 mph37%30.01 "Hg10 mi
3:54 PM47 °FPartly sunny.8 mph36%30.05 "Hg10 mi
2:54 PM48 °FSunny.14 mph33%30.08 "Hg10 mi
1:54 PM46 °FSunny.6 mph31%30.10 "Hg10 mi
12:54 PM47 °FSunny.7 mph26%30.14 "Hg10 mi
11:54 AM46 °FPassing clouds.10 mph24%30.19 "Hg10 mi
10:54 AM43 °FMore clouds than sun.7 mph28%30.21 "Hg10 mi
9:54 AM39 °FOvercast.5 mph39%30.27 "Hg10 mi
8:54 AM38 °FOvercast.No wind41%30.27 "Hg10 mi
7:54 AM34 °FOvercast.No wind54%30.26 "Hg10 mi
6:54 AM33 °FOvercast.No wind56%30.25 "Hg10 mi
5:54 AM34 °FOvercast.No wind50%30.24 "Hg10 mi
4:54 AM33 °FMostly cloudy.No wind49%30.25 "Hg10 mi
3:54 AM32 °FOvercast.No wind54%30.25 "Hg10 mi
2:54 AM32 °FOvercast.No wind47%30.25 "Hg10 mi
1:54 AM33 °FOvercast.No wind41%30.25 "Hg10 mi
12:54 AM33 °FClear.No wind41%30.25 "Hg10 mi
11:54 PM
Jan 31
32 °FClear.3 mph36%30.27 "Hg10 mi
10:54 PM31 °FClear.No wind36%30.27 "Hg10 mi
9:54 PM32 °FClear.6 mph33%30.28 "Hg10 mi
8:54 PM32 °FClear.3 mph35%30.29 "Hg10 mi
7:54 PM35 °FClear.5 mph28%30.29 "Hg10 mi
6:54 PM38 °FClear.6 mph24%30.29 "Hg10 mi
Weather by CustomWeather, © 2014

See weather overviewHow to use our weather pages